Station NFDF1 - 8720215 - Navy Fuel Depot, St Johns River, FL Image indicating link to RSS feed of recent meteorological observations for station NFDF1


Conditions at NFDF1 as of
(7:18 pm EDT)
2318 GMT on 05/22/2024:
     

Click on the graph icon in the table below to see a time series plot of the last five days of that observation.

5-day plot - Wind Direction Wind Direction (WDIR): E ( 90 deg true )
5-day plot - Wind Speed Wind Speed (WSPD): 8.9 kts
5-day plot - Wind Gust Wind Gust (GST): 9.9 kts
5-day plot - Atmospheric Pressure Atmospheric Pressure (PRES):29.97 in
5-day plot - Air Temperature Air Temperature (ATMP): 80.6 °F
5-day plot - Dew Point Dew Point (DEWP): 74.7 °F
5-day plot - Visibility Visibility (VIS): 5.9 nmi
5-day plot - Heat Index Heat Index (HEAT): 85.8 °F
5-day plot - Wind Speed at 10 Meters Wind Speed at 10 meters (WSPD10M): 9.7 kts
5-day plot - Wind Speed at 20 Meters Wind Speed at 20 meters (WSPD20M): 9.7 kts
5-day plot -  Wind Speed, Wind Gust and Atmospheric Pressure Combined plot of Wind Speed, Gust, and Air Pressure
NOS Water Level Observation Network Water Level
Previous observations
TIME
(EDT)
5-day plot - Wind Direction
WDIR
 
5-day plot - Wind Speed
WSPD
kts
5-day plot - Wind Gust
GST
kts
5-day plot - Wave Height
WVHT
ft
5-day plot - Dominant Wave Period
DPD
sec
5-day plot - Average Wave Period
APD
sec
5-day plot - Mean Wave Direction
MWD
 
5-day plot - Atmospheric Pressure
PRES
in
5-day plot - Pressure Tendency
PTDY
in
5-day plot - Air Temperature
ATMP
°F
5-day plot - Water Temperature
WTMP
°F
5-day plot - Dew Point
DEWP
°F
5-day plot - Salinity
SAL
psu
5-day plot - Visibility
VIS
nmi
5-day plot - Tide (above MLLW)
TIDE
ft
2024-05-22 07:12 pm E 8.0 9.9----29.97- 80.8- 74.8- 5.9-
2024-05-22 07:06 pm E 8.0 11.1----29.97- 81.0- 74.3- 5.9-
2024-05-22 07:00 pm E 8.0 9.9----29.97-0.03 81.1- 73.8- 5.9-
2024-05-22 06:54 pm E 8.9 9.9----29.96- 81.3- 73.6- 5.9-
2024-05-22 06:48 pm E 7.0 8.9----29.97----- 5.9-
2024-05-22 06:42 pm E 7.0 8.0----29.97----- 5.9-
2024-05-22 06:36 pm E 7.0 8.0----29.97----- 5.9-
2024-05-22 06:30 pm E 6.0 8.9----29.97- 81.9- 72.9- 5.9-
2024-05-22 06:24 pm E 8.0 8.9----29.97- 81.7- 70.7- 5.9-
2024-05-22 06:18 pmENE 8.0 8.9----29.97- 81.7- 71.4- 5.9-
2024-05-22 06:12 pm E 8.9 11.1----29.97- 81.7- 70.7- 5.9-
2024-05-22 06:06 pm E 8.0 8.9----29.97- 81.7- 71.8- 5.9-
2024-05-22 06:00 pm-------29.97-0.05 81.5- 71.6- 5.9-
2024-05-22 05:54 pm-------29.97- 81.7- 71.2- 5.9-
2024-05-22 05:48 pm E 8.9 9.9----29.98----- 5.9-
2024-05-22 05:42 pm E 8.9 9.9----29.98----- 5.9-
2024-05-22 05:36 pm E 8.9 9.9----29.98----- 5.9-
2024-05-22 05:30 pm E 8.9 9.9----29.98- 81.7- 72.7- 5.9-
2024-05-22 05:24 pm E 8.0 9.9----29.98- 81.5- 72.9- 5.9-
2024-05-22 05:18 pm E 8.9 11.1----29.98- 81.7- 72.0- 5.9-
2024-05-22 05:12 pm E 9.9 12.0----29.98- 81.5- 72.3- 5.9-
2024-05-22 05:06 pm E 9.9 13.0----29.98- 81.7- 72.9- 5.9-
2024-05-22 05:00 pm E 11.1 13.0----29.98- 81.5- 72.0- 5.9-
2024-05-22 04:54 pm E 8.9 11.1----29.99- 81.7- 72.3- 5.9-
2024-05-22 04:48 pm E 9.9 11.1----29.99- 81.7- 72.3- 5.9-
2024-05-22 04:42 pm E 8.9 12.0----29.99- 81.7- 72.1- 5.9-
2024-05-22 04:36 pm E 9.9 12.0----29.99- 81.7- 72.5- 5.9-
2024-05-22 04:30 pm E 9.9 12.0----29.99- 81.5- 72.0- 5.9-
2024-05-22 04:24 pm E 8.9 9.9----30.00- 81.7- 71.6- 5.9-
2024-05-22 04:18 pm E 8.0 9.9----30.00- 81.3- 72.3- 5.9-
2024-05-22 04:12 pm E 8.9 12.0----30.00- 81.5- 72.0- 5.9-
2024-05-22 04:06 pm E 8.9 12.0----30.00- 81.1- 71.6- 5.9-
2024-05-22 04:00 pm E 9.9 12.0----30.00-0.06 81.3- 72.3- 5.9-
2024-05-22 03:54 pm E 9.9 12.0----30.01- 81.3- 71.8- 5.9-
2024-05-22 03:48 pm E 9.9 12.0----30.01- 81.3- 72.5- 5.9-
2024-05-22 03:42 pm E 9.9 13.0----30.01- 81.3- 72.0- 5.9-
2024-05-22 03:36 pm E 9.9 13.0----30.01- 81.3- 72.7- 5.9-
2024-05-22 03:30 pm E 11.1 13.0----30.01- 81.3- 73.8- 5.9-
2024-05-22 03:24 pm E 11.1 14.0----30.01- 81.3- 73.8- 5.9-
2024-05-22 03:18 pm E 12.0 13.0----30.01- 81.1- 73.2- 5.9-
2024-05-22 03:12 pm E 11.1 12.0----30.02- 81.3- 73.0- 5.9-
2024-05-22 03:06 pm E 8.9 12.0----30.02- 81.3- 73.4- 5.9-
2024-05-22 03:00 pm E 9.9 12.0----30.02-0.04 81.3- 72.7- 5.9-
2024-05-22 02:54 pm E 9.9 12.0----30.03- 81.3- 73.4- 5.9-
2024-05-22 02:48 pm E 9.9 12.0----30.02- 81.1- 73.2- 5.9-
2024-05-22 02:42 pm E 9.9 12.0----30.03- 81.0- 73.8- 5.9-
2024-05-22 02:36 pm E 8.9 11.1----30.03- 81.1- 73.8- 5.9-
2024-05-22 02:30 pm E 8.9 12.0----30.03- 81.0- 73.4- 5.9-
2024-05-22 02:24 pm E 8.9 13.0----30.03- 81.0- 74.5- 5.9-
2024-05-22 02:18 pm E 9.9 12.0---------- 5.9-
2024-05-22 02:12 pm E 8.9 12.0---------- 5.9-
2024-05-22 02:06 pm E 8.9 11.1---------- 5.9-
2024-05-22 02:00 pm E 11.1 13.0---------- 5.9-
2024-05-22 01:54 pm E 9.9 13.0---------- 5.9-
2024-05-22 01:48 pm E 9.9 12.0---------- 5.9-
2024-05-22 01:42 pm E 7.0 11.1---------- 5.9-
2024-05-22 01:36 pmESE 7.0 9.9---------- 5.9-
2024-05-22 01:30 pm E 8.9 11.1----30.05----- 5.9-
2024-05-22 01:24 pmESE 8.9 11.1----30.05----- 5.9-
2024-05-22 01:18 pmESE 7.0 8.9---------- 5.9-
2024-05-22 01:12 pmESE 8.0 9.9---------- 5.9-
2024-05-22 01:06 pm E 7.0 8.0---------- 5.9-
2024-05-22 01:00 pm E 7.0 8.0----30.06+0.00---- 5.9-
2024-05-22 12:54 pm E 6.0 8.9----30.06----- 5.9-
2024-05-22 12:48 pm E 7.0 9.9---------- 5.9-
2024-05-22 12:42 pm E 8.9 9.9---------- 5.9-
2024-05-22 12:36 pm E 8.0 9.9---------- 5.9-
2024-05-22 12:30 pm E 8.0 11.1---------- 5.9-
2024-05-22 12:24 pm E 8.0 11.1---------- 5.9-
2024-05-22 12:18 pm E 9.9 12.0------ 79.7- 78.6- 5.9-
2024-05-22 12:12 pmESE 8.0 11.1------ 79.7- 78.1- 5.9-
2024-05-22 12:06 pm E 8.9 11.1------ 79.7- 76.8- 5.9-
2024-05-22 12:00 pm E 8.9 11.1----30.06+0.02 79.9- 78.1- 5.9-
2024-05-22 11:54 am E 8.0 12.0----30.06- 79.7- 78.1- 5.9-
2024-05-22 11:48 am E 8.9 12.0----30.06- 79.7- 79.2- 5.9-
2024-05-22 11:42 am E 8.0 11.1----30.06- 79.7- 79.7- 5.9-
2024-05-22 11:36 am E 8.9 9.9----30.06- 79.3- 79.3- 5.9-
2024-05-22 11:30 am E 8.0 11.1----30.06- 79.3- 79.3- 5.9-
2024-05-22 11:24 am E 8.9 9.9----30.06- 79.5- 79.5- 5.9-
2024-05-22 11:18 am E 7.0 8.9----30.06- 79.2- 79.2- 5.9-
2024-05-22 11:12 amESE 7.0 8.9----30.06- 78.6- 78.6- 5.9-
2024-05-22 11:06 am E 7.0 9.9----30.06- 79.2- 79.2- 5.9-
2024-05-22 11:00 am E 8.0 11.1----30.06+0.04 79.0- 79.0- 5.9-
2024-05-22 10:54 am E 11.1 13.0----30.06- 79.0- 79.0- 5.9-
2024-05-22 10:48 am E 8.0 9.9----30.06----- 5.9-
2024-05-22 10:42 am E 7.0 8.0----30.06----- 5.9-
2024-05-22 10:36 am E 8.0 9.9----30.06----- 5.9-
2024-05-22 10:30 am E 8.0 9.9---------- 5.9-
2024-05-22 10:24 am E 8.9 9.9---------- 5.9-
2024-05-22 10:18 am E 8.0 9.9---------- 5.9-
2024-05-22 10:12 amENE 9.9 11.1---------- 5.9-
2024-05-22 10:06 amENE 8.9 11.1---------- 5.9-
2024-05-22 10:00 am E 6.0 8.0----30.06+0.06 78.4- 78.3- 5.9-
2024-05-22 09:54 amENE 5.1 7.0----30.05- 78.3- 78.1- 5.9-
2024-05-22 09:48 am E 5.1 7.0----30.05----- 5.9-
2024-05-22 09:42 am E 5.1 8.0----30.05----- 5.9-
2024-05-22 09:36 amENE 6.0 8.0----30.04----- 5.9-
2024-05-22 09:30 amENE 4.1 7.0---------- 5.9-
2024-05-22 09:24 am E 5.1 6.0---------- 5.9-
2024-05-22 09:18 am E 4.1 5.1----30.04----- 5.9-
2024-05-22 09:12 amENE 5.1 6.0----30.04----- 5.9-
2024-05-22 09:06 amENE 5.1 6.0----30.04----- 5.9-
2024-05-22 09:00 amENE 6.0 6.0----30.04+0.05 77.5- 77.4- 5.9-
2024-05-22 08:54 amENE 5.1 7.0----30.03- 77.4- 77.2- 5.9-
2024-05-22 08:48 am NE 5.1 7.0----30.03- 76.8- 76.6- 5.9-
2024-05-22 08:42 am NE 6.0 8.0----30.03- 76.6- 76.5- 5.9-
2024-05-22 08:36 am NE 6.0 7.0----30.03- 76.6- 76.5- 5.9-
2024-05-22 08:30 am NE 5.1 6.0----30.03- 76.5- 76.3- 5.9-
2024-05-22 08:24 am NE 5.1 7.0----30.02- 76.1- 75.9- 5.9-
2024-05-22 08:18 amENE 6.0 7.0----30.02- 75.9- 75.7- 5.9-
2024-05-22 08:12 amENE 5.1 5.1----30.02- 75.6- 75.4- 5.9-
2024-05-22 08:06 amENE 4.1 5.1----30.02- 75.6- 75.4- 5.9-
2024-05-22 08:00 am NE 2.9 4.1----30.02+0.03 75.4- 75.2- 5.9-
2024-05-22 07:54 amENE 1.9 2.9----30.02- 75.2- 75.0- 5.9-
2024-05-22 07:48 am NE 1.9 2.9----30.01- 74.8- 74.7- 5.9-
2024-05-22 07:42 amNNE 1.9 2.9----30.01- 74.8- 74.7- 5.9-
2024-05-22 07:36 amNNE 1.0 2.9----30.01- 74.3- 74.1- 5.9-
2024-05-22 07:30 amENE 1.9 2.9----30.00- 73.8- 73.6- 5.9-
2024-05-22 07:24 am E 1.9 1.9----30.00- 73.6- 73.4- 5.9-
2024-05-22 07:18 am- 0.0 1.9----30.00- 73.0- 72.9- 5.9-
2024-05-22 07:12 amNNE 1.0 1.9----30.00- 72.7- 72.5- 5.9-
2024-05-22 07:06 amNNE 1.0 1.9----30.00- 72.0- 71.8- 5.9-
2024-05-22 07:00 am N 1.9 4.1----30.00+0.01 71.8- 71.6- 5.9-
2024-05-22 06:54 am N 2.9 5.1----30.00- 71.4- 71.2- 5.9-
2024-05-22 06:48 am N 2.9 4.1----30.00- 71.1- 70.9- 5.9-
2024-05-22 06:42 am N 1.9 4.1----30.00- 70.7- 70.5- 5.9-
2024-05-22 06:36 am N 2.9 5.1----30.00- 70.9- 70.7- 5.9-
2024-05-22 06:30 am N 1.9 4.1----30.00- 70.3- 70.2- 5.9-
2024-05-22 06:24 am N 1.0 4.1----29.99- 70.0- 69.8- 5.9-
2024-05-22 06:18 am N 1.0 2.9----29.99- 70.2- 70.0- 5.9-
2024-05-22 06:12 am N 1.9 4.1----29.99- 70.3- 70.2- 5.9-
2024-05-22 06:06 amNNW 1.9 4.1----29.99- 70.3- 70.2- 5.9-
2024-05-22 06:00 am N 1.9 2.9----29.99+0.01 70.2- 70.0- 5.9-
2024-05-22 05:54 am N 1.9 2.9----29.98- 70.2- 70.0- 5.9-
2024-05-22 05:48 amNNW 1.9 2.9----29.98- 70.2- 70.0- 5.9-
2024-05-22 05:42 am N 1.9 2.9----29.98- 70.3- 70.2- 5.9-
2024-05-22 05:36 am N 1.9 2.9----29.99- 70.0- 69.8- 5.9-
2024-05-22 05:30 amNNW 1.0 2.9----29.99- 70.0- 69.8- 5.9-
2024-05-22 05:24 amNNW 1.0 1.9----29.99- 70.0- 69.8- 5.9-
2024-05-22 05:18 amNNW 1.0 1.9----29.99- 69.8- 69.6- 5.9-
2024-05-22 05:12 amNNW 1.0 2.9----29.99- 69.8- 69.6- 5.9-
2024-05-22 05:06 amNNW 1.0 4.1----29.99- 70.0- 69.8- 5.9-
2024-05-22 05:00 am NW 1.0 2.9----29.99+0.02 70.0- 69.8- 5.9-
2024-05-22 04:54 amNNW 1.0 2.9----29.99- 70.2- 70.0- 5.9-
2024-05-22 04:48 am N 1.9 2.9----29.98- 70.3- 70.2- 5.9-
2024-05-22 04:42 amNNW 1.0 1.9----29.98- 70.2- 70.0- 5.9-
2024-05-22 04:36 am N 1.0 2.9----29.99- 70.2- 70.0- 5.9-
2024-05-22 04:30 am NW 1.0 2.9----29.99- 70.3- 70.2- 5.9-
2024-05-22 04:24 am NW 1.0 2.9----29.99- 70.5- 70.3- 5.9-
2024-05-22 04:18 am NW 1.0 1.9----29.99- 70.5- 70.3- 5.9-
2024-05-22 04:12 amNNW 1.0 4.1----29.99- 70.7- 70.5- 5.9-
2024-05-22 04:06 am NW 1.9 4.1----29.99- 70.9- 70.7- 5.9-
2024-05-22 04:00 amWNW 1.9 4.1----29.99+0.00 71.1- 70.9- 5.9-
2024-05-22 03:54 am NW 1.9 2.9----29.99- 71.2- 71.1- 5.9-
2024-05-22 03:48 am NW 1.0 4.1----29.99- 71.2- 71.1- 5.9-
2024-05-22 03:42 am NW 1.9 2.9----29.99- 71.4- 71.2- 5.9-
2024-05-22 03:36 am NW 1.9 2.9----29.98- 71.4- 71.2- 5.9-
2024-05-22 03:30 am NW 1.9 1.9----29.98- 71.6- 71.4- 5.9-
2024-05-22 03:24 am NW 1.9 2.9----29.98- 71.6- 71.4- 5.9-
2024-05-22 03:18 amNNW 1.0 1.9----29.98- 71.6- 71.4- 5.9-
2024-05-22 03:12 am NW 1.9 2.9----29.98- 71.8- 71.6- 5.9-
2024-05-22 03:06 am NW 1.0 1.9----29.98- 72.0- 71.8- 5.9-
2024-05-22 03:00 am NW 1.9 1.9----29.98+0.00 72.1- 72.0- 5.9-
2024-05-22 02:54 am NW 1.9 2.9----29.97- 72.1- 72.0- 5.9-
2024-05-22 02:48 amWNW 1.9 2.9----29.97- 72.3- 72.1- 5.9-
2024-05-22 02:42 amWNW 2.9 2.9----29.97- 72.5- 72.3- 5.9-
2024-05-22 02:36 amNNW 1.0 1.9----29.97- 72.3- 72.1- 5.9-
2024-05-22 02:30 am NW 1.0 1.9----29.97- 72.3- 72.1- 5.9-
2024-05-22 02:24 am- 0.0 1.9----29.97- 72.5- 72.3- 5.9-
2024-05-22 02:18 am- 0.0 1.9----29.96- 72.7- 72.5- 5.9-
2024-05-22 02:12 am- 0.0 1.0----29.97- 72.7- 72.5- 5.9-
2024-05-22 02:06 am- 0.0 1.9----29.97- 72.7- 72.5- 5.9-
2024-05-22 02:00 amNNE 1.0 2.9----29.97+0.00 72.9- 72.7- 5.9-
2024-05-22 01:54 am N 1.0 2.9----29.97- 72.9- 72.7- 5.9-
2024-05-22 01:48 am- 0.0 1.9----29.97- 72.9- 72.7- 5.9-
2024-05-22 01:42 amNNE 1.9 4.1----29.98- 73.6- 73.4- 5.9-
2024-05-22 01:36 amENE 2.9 4.1----29.98- 74.1- 73.9- 5.9-
2024-05-22 01:30 amENE 4.1 6.0----29.98- 74.5- 74.3- 5.9-
2024-05-22 01:24 amENE 5.1 6.0----29.98- 74.7- 74.5- 5.9-
2024-05-22 01:18 am E 5.1 6.0----29.98- 74.7- 74.5- 5.9-
2024-05-22 01:12 amENE 5.1 6.0----29.98- 74.7- 74.5- 5.9-
2024-05-22 01:06 amENE 5.1 6.0----29.98- 74.7- 74.5- 5.9-
2024-05-22 01:00 am E 5.1 6.0----29.98+0.01 74.7- 74.5- 5.9-
2024-05-22 12:54 am NE 2.9 5.1----29.99- 74.3- 74.1- 5.9-
2024-05-22 12:48 amENE 2.9 6.0----29.99- 74.5- 74.3- 5.9-
2024-05-22 12:42 amENE 5.1 7.0----29.99- 74.5- 74.3- 5.9-
2024-05-22 12:36 amENE 5.1 7.0----29.98- 74.3- 74.1- 5.9-
2024-05-22 12:30 am NE 2.9 6.0----29.98- 73.8- 73.6- 5.9-
2024-05-22 12:24 am NE 5.1 8.0----29.98- 73.9- 73.8- 5.9-
2024-05-22 12:18 amENE 5.1 8.0----29.98- 74.1- 73.9- 5.9-
2024-05-22 12:12 am NE 5.1 8.0----29.98- 73.8- 73.6- 5.9-
2024-05-22 12:06 am NE 5.1 8.0----29.98- 73.9- 73.8- 5.9-
2024-05-22 12:00 am NE 5.1 7.0----29.98+0.00 73.6- 73.4- 5.9-
2024-05-21 11:54 pm NE 5.1 7.0----29.97- 73.6- 73.4- 5.9-
2024-05-21 11:48 pm NE 5.1 7.0----29.98- 73.6- 73.4- 5.9-
2024-05-21 11:42 pmNNE 5.1 6.0----29.98- 73.6- 73.4- 5.9-
2024-05-21 11:36 pm NE 5.1 7.0----29.97- 73.6- 73.4- 5.9-
2024-05-21 11:30 pm NE 4.1 6.0----29.97- 73.6- 73.4- 5.9-
2024-05-21 11:24 pm NE 4.1 5.1----29.97- 73.8- 73.6- 5.9-
2024-05-21 11:18 pmNNE 4.1 6.0----29.97- 73.8- 73.6- 5.9-
2024-05-21 11:12 pm NE 5.1 6.0----29.97- 73.8- 73.6- 5.9-
2024-05-21 11:06 pmNNE 2.9 5.1----29.98- 73.8- 73.6- 4.3-
2024-05-21 11:00 pmNNE 1.9 7.0----29.97+0.00 73.8- 73.6- 5.9-
2024-05-21 10:54 pm NE 5.1 8.0----29.97- 73.9- 73.8- 5.9-
2024-05-21 10:48 pm NE 5.1 8.9----29.97- 74.1- 73.9- 5.9-
2024-05-21 10:42 pm NE 4.1 8.0----29.97- 74.1- 73.9- 5.9-
2024-05-21 10:36 pmNNE 5.1 8.0----29.97- 73.9- 73.8- 5.9-
2024-05-21 10:30 pm NE 5.1 8.9----29.97- 73.9- 73.8- 5.9-
2024-05-21 10:24 pm NE 6.0 8.9----29.97- 74.1- 73.9- 5.9-
2024-05-21 10:18 pm NE 7.0 11.1----29.97- 74.1- 73.9- 5.9-
2024-05-21 10:12 pm NE 5.1 8.9----29.97- 74.3- 74.1- 5.9-
2024-05-21 10:06 pm NE 6.0 9.9----29.97- 74.3- 74.1- 5.9-
2024-05-21 10:00 pm NE 6.0 9.9----29.97+0.00 74.1- 73.9- 5.9-
2024-05-21 09:54 pm NE 5.1 8.0----29.97- 74.3- 74.1- 5.9-
2024-05-21 09:48 pm NE 6.0 8.9----29.97- 74.5- 74.3- 5.9-
2024-05-21 09:42 pm NE 6.0 9.9----29.96- 74.3- 74.1- 5.9-
2024-05-21 09:36 pm NE 6.0 11.1----29.97- 74.5- 74.3- 5.9-
2024-05-21 09:30 pm NE 5.1 7.0----29.97- 74.5- 74.3- 5.9-
2024-05-21 09:24 pmNNE 5.1 8.9----29.97- 74.5- 74.3- 5.9-
2024-05-21 09:18 pmNNE 5.1 7.0----29.97- 74.5- 74.3- 5.9-
2024-05-21 09:12 pm NE 7.0 9.9----29.97- 74.7- 74.5- 5.9-
2024-05-21 09:06 pm NE 8.0 11.1----29.97- 74.7- 74.5- 5.9-
2024-05-21 09:00 pmNNE 7.0 11.1----29.97+0.01 74.7- 74.5- 5.9-
2024-05-21 08:54 pm NE 5.1 8.0----29.97- 74.7- 74.5- 5.9-
2024-05-21 08:48 pmNNE 4.1 6.0----29.97- 74.7- 74.5- 5.9-
2024-05-21 08:42 pm NE 5.1 8.0----29.98- 74.7- 74.5- 5.9-
2024-05-21 08:36 pmNNE 6.0 9.9----29.98- 74.8- 74.7- 5.9-
2024-05-21 08:30 pm NE 6.0 11.1----29.97- 74.8- 74.7- 5.9-
2024-05-21 08:24 pmNNE 4.1 6.0----29.97- 74.8- 74.7- 5.9-
2024-05-21 08:18 pm NE 6.0 7.0----29.97- 75.2- 75.0- 5.9-
2024-05-21 08:12 pmNNE 6.0 9.9----29.97- 75.2- 75.0- 5.9-
2024-05-21 08:06 pm NE 8.0 13.0----29.97- 75.4- 75.2- 5.9-
2024-05-21 08:00 pm NE 7.0 8.9----29.97+0.01 75.6- 75.4- 5.9-
2024-05-21 07:54 pm NE 6.0 9.9----29.97- 75.6- 75.4- 5.9-